Location: *
(32.8140°S, 174.6161°E)
Time: 12:16:54
(UTC+00:00)

Cosmos 1633 - Pass Details

Date: 10 December 2019
Orbit: 464 x 483 km, 82.5° (Epoch: 26 January)

Event Time Altitude Azimuth Distance (km) Brightness Sun altitude
Rises 14:59:26 0° 180° (S) 2,560 7.0 -21.7°
Reaches altitude 10° 15:01:37 10° 173° (S) 1,675 6.0 -21.4°
Maximum altitude 15:05:09 46° 99° (E) 664 3.5 -21.0°
Enters shadow 15:06:48 26° 40° (NE) 978 4.0 -20.7°
